Flag for U.S.A. Weather past 2 weeks in Lynchburg, Virginia, U.S.A.

Now
69 °F

Mostly cloudy.


Feels Like: 69 °F
Forecast: 67 / 79 °F
Wind: 5 mph from Southeast

Location: Lynchburg Regional Airport

Current Time: Jul 6, 2015 at 5:16:05 AM

Latest Report: Jul 6, 2015 at 3:54 AM


Visibility: 10 mi

Pressure: 30.08 "Hg

Humidity: 96%

Dew point: 68 °F

Location of LynchburgLocation

Historic Weather in Lynchburg — Graph

°F

Lynchburg temperature yesterday

Maximum temperature yesterday: 79 °F (at 2:54 PM)
Minimum temperature yesterday: 68 °F (at 1:03 AM)
Average temperature yesterday: 72 °F

Past Weeks' High & Low Weather Summary

 TemperatureHumidityPressure
High90 °F (Jun 21, 3:54 PM)100% (Jun 22, 5:54 AM)30.15 "Hg (Jun 22, 5:54 AM)
Low54 °F (Jun 29, 5:54 AM)37% (Jun 24, 5:54 PM)29.71 "Hg (Jun 27, 6:54 PM)
Average74 °F78%29.96 "Hg
* Reported Jun 21 3:54 AM — Jul 6 3:54 AM, Lynchburg, Weather by CustomWeather, © 2015

Note: Actual official high and low records may vary slightly from our data, if they occured in-between our weather recording intervals... More about our weather records

Advertising

Lynchburg weather history for previous 24 hours

 ConditionsComfort  
Time TempWeatherWind HumidityBarometerVisibility
3:54 AM
Mon, Jul 6
69 °FMostly cloudy.5 mph96%30.08 "Hg10 mi
2:54 AM69 °FLow clouds.3 mph96%30.08 "Hg10 mi
1:54 AM69 °FOvercast.3 mph100%30.09 "Hg10 mi
12:54 AM70 °FPassing clouds.5 mph97%30.09 "Hg10 mi
11:54 PM
Sun, Jul 5
70 °FMostly cloudy.6 mph100%30.11 "Hg10 mi
10:54 PM71 °FLight rain. Mostly cloudy.No wind96%30.11 "Hg10 mi
9:54 PM71 °FThunderstorms. Mostly cloudy.3 mph100%30.11 "Hg10 mi
9:03 PM72 °FStrong thunderstorms. Fog.9 mph100%30.13 "Hg2 mi
8:54 PM73 °FStrong thunderstorms. Fog.3 mph97%30.11 "Hg2 mi
7:54 PM73 °FThundershowers. Mostly cloudy.7 mph97%30.09 "Hg10 mi
6:54 PM75 °FPassing clouds.6 mph90%30.08 "Hg10 mi
5:54 PM75 °FBroken clouds.7 mph90%30.08 "Hg10 mi
4:54 PM78 °FScattered clouds.8 mph79%30.08 "Hg10 mi
3:54 PM79 °FScattered clouds.5 mph77%30.09 "Hg10 mi
2:54 PM79 °FPartly sunny.8 mph77%30.11 "Hg10 mi
1:54 PM77 °FMore clouds than sun.3 mph79%30.13 "Hg10 mi
12:54 PM75 °FMore clouds than sun.5 mph85%30.14 "Hg10 mi
11:54 AM73 °FMore clouds than sun.7 mph90%30.15 "Hg10 mi
10:54 AM72 °FMostly cloudy.7 mph91%30.14 "Hg10 mi
9:54 AM72 °FOvercast.6 mph87%30.13 "Hg10 mi
8:54 AM71 °FPartly sunny.6 mph93%30.13 "Hg10 mi
8:03 AM70 °FOvercast.6 mph93%30.15 "Hg10 mi
7:54 AM70 °FOvercast.7 mph93%30.12 "Hg10 mi
6:54 AM69 °FOvercast.6 mph96%30.10 "Hg10 mi
5:54 AM69 °FMostly cloudy.3 mph100%30.08 "Hg9 mi
Weather by CustomWeather, © 2015

See weather overviewHow to use our weather pages